| time (UTC) | temp F | wind direction | speed MPH | gust MPH | rain 1hr in | rain 24hr in | rain mn in | humidity % | barometer mb |
| 20260508151548 | 63 | 78 | 0.0 | 2.0 | 0.00 | 0.00 | 0.00 | 54 | 1007.1 |
| 20260508150050 | 63 | 281 | 0.0 | 4.0 | 0.00 | 0.00 | 0.00 | 54 | 1008.6 |
| 20260508144553 | 63 | 287 | 3.0 | 3.0 | 0.00 | 0.00 | 0.00 | 54 | 1008.4 |
| 20260508143048 | 63 | 0 | 1.0 | 3.0 | 0.00 | 0.00 | 0.00 | 53 | 1007.9 |
| 20260508141600 | 63 | 230 | 0.0 | 4.0 | 0.00 | 0.00 | 0.00 | 53 | 1007.8 |
| 20260508140055 | 62 | 260 | 2.0 | 4.0 | 0.00 | 0.00 | 0.00 | 53 | 1007.7 |
| 20260508134552 | 62 | 246 | 2.0 | 5.0 | 0.00 | 0.00 | 0.00 | 57 | 1007.8 |
| 20260508133052 | 61 | 286 | 2.0 | 2.0 | 0.00 | 0.00 | 0.00 | 57 | 1007.9 |
| 20260508131601 | 61 | 0 | 0.0 | 0.0 | 0.00 | 0.00 | 0.00 | 57 | 1007.8 |
| 20260508130050 | 61 | 0 | 0.0 | 0.0 | 0.00 | 0.00 | 0.00 | 53 | 1007.8 |
| 20260508124554 | 61 | 240 | 0.0 | 0.0 | 0.00 | 0.00 | 0.00 | 53 | 1007.7 |
| 20260508123054 | 61 | 0 | 0.0 | 0.0 | 0.00 | 0.00 | 0.00 | 53 | 1007.6 |
| 20260508121558 | 62 | 0 | 0.0 | 4.0 | 0.00 | 0.00 | 0.00 | 50 | 1007.5 |
| 20260508120101 | 61 | 290 | 3.0 | 4.0 | 0.00 | 0.00 | 0.00 | 50 | 1007.7 |
| 20260508114553 | 61 | 300 | 2.0 | 5.0 | 0.00 | 0.00 | 0.00 | 50 | 1007.5 |
| 20260508113108 | 61 | 0 | 0.0 | 0.0 | 0.00 | 0.00 | 0.00 | 50 | 1007.2 |
| 20260508111559 | 62 | 336 | 1.0 | 3.0 | 0.00 | 0.00 | 0.00 | 50 | 1007.0 |
| 20260508110100 | 62 | 245 | 1.0 | 1.0 | 0.00 | 0.00 | 0.00 | 50 | 1006.8 |
| 20260508104557 | 63 | 249 | 0.0 | 2.0 | 0.00 | 0.00 | 0.00 | 49 | 1006.7 |
| 20260508103117 | 63 | 233 | 2.0 | 2.0 | 0.00 | 0.00 | 0.00 | 49 | 1006.9 |
| 20260508101614 | 63 | 250 | 1.0 | 4.0 | 0.00 | 0.00 | 0.00 | 54 | 1006.8 |
| 20260508100054 | 62 | 259 | 3.0 | 7.0 | 0.00 | 0.00 | 0.00 | 54 | 1006.8 |
| 20260508094605 | 62 | 252 | 1.0 | 6.0 | 0.00 | 0.00 | 0.00 | 54 | 1006.7 |
| 20260508093051 | 62 | 269 | 1.0 | 7.0 | 0.00 | 0.00 | 0.00 | 49 | 1007.0 |
| 20260508091551 | 62 | 95 | 1.0 | 2.0 | 0.00 | 0.00 | 0.00 | 49 | 1007.2 |
| 20260508090059 | 62 | 229 | 1.0 | 1.0 | 0.00 | 0.00 | 0.00 | 49 | 1007.1 |
| 20260508084553 | 62 | 142 | 1.0 | 3.0 | 0.00 | 0.00 | 0.00 | 50 | 1007.3 |
| 20260508083111 | 61 | 244 | 0.0 | 0.0 | 0.00 | 0.00 | 0.00 | 50 | 1007.4 |
| 20260508081553 | 61 | 178 | 0.0 | 1.0 | 0.00 | 0.00 | 0.00 | 50 | 1007.5 |
| 20260508080055 | 61 | 184 | 1.0 | 1.0 | 0.00 | 0.00 | 0.00 | 46 | 1007.5 |
| 20260508074554 | 62 | 0 | 0.0 | 2.0 | 0.00 | 0.00 | 0.00 | 46 | 1007.7 |
| 20260508073057 | 63 | 0 | 0.0 | 3.0 | 0.00 | 0.00 | 0.00 | 46 | 1007.9 |
| 20260508071551 | 64 | 0 | 0.0 | 2.0 | 0.00 | 0.00 | 0.00 | 44 | 1008.0 |
| 20260508070053 | 64 | 212 | 4.0 | 4.0 | 0.00 | 0.00 | 0.00 | 44 | 1008.2 |
| 20260508064555 | 64 | 212 | 5.0 | 5.0 | 0.00 | 0.00 | 0.00 | 44 | 1008.5 |
| 20260508063054 | 64 | 174 | 2.0 | 2.0 | 0.00 | 0.00 | 0.00 | 42 | 1008.7 |
| 20260508061554 | 65 | 197 | 1.0 | 2.0 | 0.00 | 0.00 | 0.00 | 42 | 1008.8 |
| 20260508060054 | 65 | 241 | 1.0 | 2.0 | 0.00 | 0.00 | 0.00 | 42 | 1009.0 |
| 20260508054557 | 66 | 202 | 1.0 | 8.0 | 0.00 | 0.00 | 0.00 | 44 | 1009.1 |
| 20260508053054 | 66 | 150 | 2.0 | 4.0 | 0.00 | 0.00 | 0.00 | 44 | 1009.3 |
| 20260508051553 | 66 | 275 | 2.0 | 5.0 | 0.00 | 0.00 | 0.00 | 44 | 1009.2 |
| 20260508050057 | 66 | 229 | 3.0 | 6.0 | 0.00 | 0.00 | 0.00 | 47 | 1009.6 |
| 20260508044551 | 66 | 234 | 1.0 | 7.0 | 0.00 | 0.00 | 0.00 | 47 | 1009.4 |
| 20260508043100 | 63 | 259 | 3.0 | 8.0 | 0.00 | 0.00 | 0.00 | 47 | 1009.4 |
| 20260508041600 | 63 | 0 | 0.0 | 1.0 | 0.00 | 0.00 | 0.00 | 64 | 1009.4 |
| 20260508040056 | 61 | 0 | 0.0 | 1.0 | 0.00 | 0.00 | 0.00 | 64 | 1009.4 |
| 20260508034556 | 59 | 0 | 0.0 | 0.0 | 0.00 | 0.00 | 0.00 | 64 | 1009.3 |
| 20260508033052 | 59 | 161 | 0.0 | 0.0 | 0.00 | 0.00 | 0.00 | 66 | 1009.2 |
| 20260508031551 | 59 | 0 | 0.0 | 0.0 | 0.00 | 0.00 | 0.00 | 66 | 1009.2 |
| 20260508030055 | 59 | 0 | 0.0 | 0.0 | 0.00 | 0.00 | 0.00 | 60 | 1009.1 |
| 20260508024551 | 61 | 0 | 0.0 | 1.0 | 0.00 | 0.00 | 0.00 | 60 | 1008.8 |
| 20260508023051 | 61 | 166 | 0.0 | 0.0 | 0.00 | 0.00 | 0.00 | 60 | 1008.7 |
| 20260508021552 | 63 | 0 | 0.0 | 1.0 | 0.00 | 0.00 | 0.00 | 46 | 1008.5 |
| 20260508020044 | 67 | 0 | 0.0 | 0.0 | 0.00 | 0.00 | 0.00 | 46 | 1008.3 |
| 20260508014552 | 67 | 0 | 0.0 | 0.0 | 0.00 | 0.00 | 0.00 | 46 | 1008.1 |
| 20260508013051 | 69 | 0 | 0.0 | 1.0 | 0.00 | 0.00 | 0.00 | 38 | 1007.9 |
| 20260508011552 | 71 | 121 | 0.0 | 0.0 | 0.00 | 0.00 | 0.00 | 38 | 1007.7 |
| 20260508010048 | 75 | 0 | 0.0 | 0.0 | 0.00 | 0.00 | 0.00 | 38 | 1007.6 |
| 20260508004550 | 75 | 168 | 1.0 | 1.0 | 0.00 | 0.00 | 0.00 | 36 | 1007.6 |
| 20260508003059 | 75 | 192 | 0.0 | 0.0 | 0.00 | 0.00 | 0.00 | 36 | 1007.6 |
| 20260508001550 | 75 | 0 | 0.0 | 0.0 | 0.00 | 0.00 | 0.00 | 36 | 1007.5 |
| 20260508000052 | 76 | 0 | 0.0 | 0.0 | 0.00 | 0.00 | 0.00 | 30 | 1007.7 |
| 20260507234551 | 76 | 0 | 0.0 | 2.0 | 0.00 | 0.00 | 0.00 | 30 | 1007.7 |
| 20260507233053 | 76 | 269 | 0.0 | 4.0 | 0.00 | 0.00 | 0.00 | 30 | 1007.9 |
| 20260507231549 | 77 | 234 | 3.0 | 4.0 | 0.00 | 0.00 | 0.00 | 29 | 1008.0 |
| 20260507230052 | 77 | 279 | 2.0 | 3.0 | 0.00 | 0.00 | 0.00 | 29 | 1008.0 |
| 20260507224610 | 77 | 129 | 4.0 | 7.0 | 0.00 | 0.00 | 0.00 | 29 | 1008.3 |
| 20260507223054 | 76 | 253 | 4.0 | 4.0 | 0.00 | 0.00 | 0.00 | 30 | 1008.5 |
| 20260507221551 | 76 | 105 | 7.0 | 8.0 | 0.00 | 0.00 | 0.00 | 30 | 1008.6 |
| 20260507220050 | 76 | 286 | 2.0 | 11.0 | 0.00 | 0.00 | 0.00 | 30 | 1008.8 |
| 20260507214552 | 75 | 275 | 4.0 | 5.0 | 0.00 | 0.00 | 0.00 | 29 | 1008.7 |
| 20260507213056 | 75 | 248 | 9.0 | 9.0 | 0.00 | 0.00 | 0.00 | 29 | 1009.0 |
| 20260507211608 | 75 | 165 | 7.0 | 10.0 | 0.00 | 0.00 | 0.00 | 29 | 1009.2 |
| 20260507210053 | 75 | 247 | 5.0 | 8.0 | 0.00 | 0.00 | 0.00 | 32 | 1009.4 |
| 20260507204554 | 73 | 244 | 4.0 | 5.0 | 0.00 | 0.00 | 0.00 | 32 | 1009.8 |
| 20260507203051 | 73 | 281 | 6.0 | 11.0 | 0.00 | 0.00 | 0.00 | 32 | 1010.0 |
| 20260507201610 | 73 | 229 | 4.0 | 8.0 | 0.00 | 0.00 | 0.00 | 36 | 1010.4 |
| 20260507194556 | 72 | 144 | 6.0 | 9.0 | 0.00 | 0.00 | 0.00 | 36 | 1010.9 |
| 20260507193056 | 71 | 55 | 7.0 | 7.0 | 0.00 | 0.00 | 0.00 | 37 | 1011.0 |
| 20260507191552 | 71 | 259 | 3.0 | 9.0 | 0.00 | 0.00 | 0.00 | 37 | 1011.3 |
| 20260507190052 | 70 | 250 | 5.0 | 6.0 | 0.00 | 0.00 | 0.00 | 39 | 1011.5 |
| 20260507184548 | 68 | 261 | 6.0 | 9.0 | 0.00 | 0.00 | 0.00 | 39 | 1011.6 |
| 20260507183047 | 68 | 206 | 3.0 | 8.0 | 0.00 | 0.00 | 0.00 | 39 | 1011.8 |
| 20260507181550 | 67 | 254 | 4.0 | 7.0 | 0.00 | 0.00 | 0.00 | 43 | 1012.2 |
| 20260507180054 | 67 | 210 | 4.0 | 11.0 | 0.00 | 0.00 | 0.00 | 43 | 1012.4 |
| 20260507174552 | 66 | 251 | 4.0 | 8.0 | 0.00 | 0.00 | 0.00 | 43 | 1012.7 |
| 20260507173057 | 66 | 281 | 10.0 | 10.0 | 0.00 | 0.00 | 0.00 | 48 | 1013.1 |
| 20260507171554 | 64 | 218 | 6.0 | 12.0 | 0.00 | 0.00 | 0.00 | 48 | 1013.1 |
| 20260507170052 | 63 | 214 | 7.0 | 8.0 | 0.00 | 0.00 | 0.00 | 48 | 1013.3 |
| 20260507164552 | 63 | 267 | 5.0 | 10.0 | 0.00 | 0.00 | 0.00 | 50 | 1013.6 |
| 20260507163052 | 62 | 281 | 3.0 | 7.0 | 0.00 | 0.00 | 0.00 | 50 | 1013.8 |
| 20260507161550 | 61 | 265 | 9.0 | 10.0 | 0.00 | 0.00 | 0.00 | 50 | 1014.0 |
| 20260507160052 | 59 | 124 | 1.0 | 11.0 | 0.00 | 0.00 | 0.00 | 55 | 1014.0 |
| 20260507154554 | 59 | 212 | 8.0 | 8.0 | 0.00 | 0.00 | 0.00 | 55 | 1014.4 |
| 20260507153058 | 59 | 222 | 4.0 | 7.0 | 0.00 | 0.00 | 0.00 | 55 | 1014.5 |